Zurück zum Katalog

COSMOS 1275 DEB

AktivPO
NORAD 39937·DEBRIS·🇷🇺 Russia

Gestartet Jun 4, 1981 von Plesetsk Cosmodrome

Loading…

Nächste Überflüge (nächste 24 Stunden)

TLE

AktuellSource: Space-Track

Epoche: Sep 14, 2026, 03:24 UTC

1 39937U 81053MX  26257.14206713  .00000625  00000-0  50098-3 0  9992
2 39937  82.8848  52.0167 0063988 218.6396 141.0181 13.88393070647028

Verfolge COSMOS 1275 DEB in Echtzeit mit AllMySat

Download on the App Store